|
NORAD ID: 35718 Int'l Code: 1993-036AQP
Perigee: 760.8 km
Apogee: 793.9 km
Inclination: 74.0 °
Period: 100.2 minutes
Semi major axis: 7148 km
Launch date: June 16, 1993
Source: Commonwealth of Independent States (former USSR) (CIS)
Note: This is SATELLITE DEBRIS
Two Line Element Set (TLE):
1 35718U 93036AQP 13129.14694306 .00001706 00000-0 58853-3 0 2498
2 35718 074.0401 065.7651 0023139 185.0475 173.7279 14.36470307207044
Source:
NASA's NSSDC Master Catalog entry for COSMOS 2251 DEB
|